Location: Saratoga Springs
(43.0831°N, 73.7850°W)
Time: 11:50:27
(UTC-04:00)

SR - Pass Details

Date: 22 April 2024
Orbit: 579 x 860 km, 66.7° (Epoch: 20 May)

Event Time Altitude Azimuth Distance (km) Brightness Sun altitude
Exits shadow 04:08:31 11° 292° (WNW) 2,262 ? -18.9°
Maximum altitude 04:11:00 14° 322° (NW) 1,992 ? -18.5°
Drops below altitude 10° 04:13:42 10° 354° (N) 2,223 ? -18.1°
Sets 04:17:08 0° 19° (NNE) 3,078 ? -17.7°
